STARLINK-1404 (45686 NORAD) Tracking and Keplerian Element Data

This shows tracking and keplerian element data for the satellite.

Feedback or suggestion? Click here.




ElementValue
Catalog45686
NameSTARLINK-1404
Epoch Orbit182
Epoch Day191.91670139
Epoch Year2020
RAAN353.4808
Inclination52.9994
Eccentricity0.0001208
Argument of Perigee52.6887
Mean Anonmoly166.777
Mean Motion15.62705227
Decay Rate0.00058615
L11 45686U 20035AF 20191.91670139 .00058615 00000-0 64254-3 0 9997
L22 45686 52.9994 353.4808 0001208 52.6887 166.7770 15.62705227 1829

Live tracking and technical data element details for STARLINK-1404 (NORAD 45686). STARLINK-1404 can be tracked NOW for your location showing map with azimuth and elevation plus other details from your city location.

Track the satellite on the map from your city or location and see movement details for azimuth, elevation, latitude, longitude, range, height, and movement on the map or in text.







IsCatalogInMostPopularTable: catalog: 45686, numindb: 4
Update: records affected: 1



GetName: 45686 STARLINK-1404

Hit Count: updated at: Fri, 10 Jul 2020 16:51:09 GMT